This is the latest recevied weather packets stored in our database for station/object JE4YKI-13. If no packets are shown the sender has not sent any weather packets the latest 10 day(s).
| Time | Temp. | Humidity | Pressure | Rain* | Wind** | Luminosity | Snow |
|---|---|---|---|---|---|---|---|
| 1778264013 | 11.67° C | 76% | 1015.9 hPa | 0 mm | - | - | - |
| 1778263413 | 11.67° C | 74% | 1015.8 hPa | 0 mm | - | - | - |
| 1778262812 | 11.67° C | 74% | 1015.8 hPa | 0 mm | - | - | - |
| 1778262212 | 11.67° C | 74% | 1015.7 hPa | 0 mm | - | - | - |
| 1778261612 | 12.22° C | 73% | 1015.7 hPa | 0 mm | - | - | - |
| 1778261011 | 12.22° C | 72% | 1015.7 hPa | 0 mm | - | - | - |
| 1778260411 | 12.22° C | 71% | 1015.7 hPa | 0 mm | - | - | - |
| 1778259810 | 12.78° C | 69% | 1015.7 hPa | 0 mm | - | - | - |
| 1778259210 | 13.33° C | 68% | 1015.7 hPa | 0 mm | - | - | - |
| 1778258610 | 13.33° C | 68% | 1015.6 hPa | 0 mm | - | - | - |
| 1778258010 | 13.33° C | 69% | 1015.7 hPa | 0 mm | - | - | - |
| 1778257409 | 13.33° C | 67% | 1015.6 hPa | 0 mm | - | - | - |
| 1778256808 | 13.89° C | 65% | 1015.6 hPa | 0 mm | - | - | - |
| 1778256208 | 12.78° C | 64% | 1015.5 hPa | 0 mm | - | - | - |
| 1778255608 | 12.78° C | 61% | 1015.5 hPa | 0 mm | - | - | - |
| 1778255007 | 12.78° C | 60% | 1015.3 hPa | 0 mm | - | - | - |
| 1778254407 | 12.78° C | 58% | 1015.2 hPa | 0 mm | - | - | - |
| 1778253807 | 12.78° C | 59% | 1015.2 hPa | 0 mm | - | - | - |
| 1778253206 | 12.78° C | 60% | 1015 hPa | 0 mm | - | - | - |
| 1778252606 | 12.22° C | 61% | 1014.9 hPa | 0 mm | - | - | - |
| 1778252006 | 12.22° C | 61% | 1014.8 hPa | 0 mm | - | - | - |
| 1778251405 | 12.78° C | 61% | 1014.7 hPa | 0 mm | - | - | - |
| 1778250805 | 12.78° C | 58% | 1014.7 hPa | 0 mm | - | - | - |
| 1778250205 | 13.33° C | 55% | 1014.4 hPa | 0 mm | - | - | - |
| 1778249604 | 12.78° C | 57% | 1014.3 hPa | 0 mm | - | - | - |
* Rain latest hour (hover to see other rain measurements)
** Current wind speed in m/s (hover to see current wind gust speed)